Probability
6 6 6 10 3 3 3 3 3 3 3 3 3 3 3 3 3 3 3 3 3 3 3 3 0 0 0 0 0 0 0 0 0 0 0 0 0 0 0 0 0 0 0
6 6 3 3 3 3 3 3 3 3 3 3 3 3 3 3 3 3 3 3 3 3 3 3 3 0 0 0 0 0 0 0 0 0 0 0 0 0 0 0 0 0 0
6 6 3 3 3 3 3 3 3 3 3 3 3 3 3 3 3 3 3 3 3 3 3 3 3 3 0 0 0 0 0 0 0 0 0 0 0 0 0 0 0 0 0
6 3 3 3 3 3 3 3 3 3 3 3 3 3 3 3 3 3 3 3 3 3 3 3 3 3 0 0 0 0 0 0 0 0 0 0 0 0 0 0 0 0 0
0 0 0 0 0 0 0 3 3 3 3 3 3 3 3 3 0 0 0 0 3 3 3 3 3 0 0 0 0 0 0 0 0 0 0 0 0 0 0 0 0 0 0
0 0 0 0 0 0 0 0 0 0 0 0 0 0 0 0 0 0 0 0 0 0 0 0 0 0 0 0 0 0 0 0 0 0 0 0 0 0 0 0 0 0 0
0 0 0 0 0 0 0 0 0 0 0 0 0 0 0 0 0 0 0 0 0 0 0 0 0 0 0 0 0 0 0 0 0 0 0 0 0 0 0 0 0 0 0
0 0 0 0 0 0 0 0 0 0 0 0 0 0 0 0 0 0 0 0 0 0 0 0 0 0 0 0 0 0 0 0 0 0 0 0 0 0 0 0 0 0 0
0 0 0 0 0 0 0 0 0 0 0 0 0 0 0 0 0 0 0 0 0 0 0 0 0 0 0 0 0 0 0 0 0 0 0 0 0 0 0 0 0 0 0
0 0 0 0 0 0 0 0 0 0 0 0 0 0 0 0 0 0 0 0 0 0 0 0 0 0 0 0 0 0 0 0 0 0 0 0 0 0 0 0 0 0 0
0 0 0 0 0 0 0 0 0 0 0 0 0 0 0 0 0 0 0 0 0 0 0 0 0 0 0 0 0 0 0 0 0 0 0 0 0 0 0 0 0 0 0
0 0 0 0 0 0 0 0 0 0 0 0 0 0 0 0 0 0 0 0 0 0 0 0 0 0 0 0 0 0 0 0 0 0 0 0 0 0 0 0 0 0 0
0 0 0 0 0 0 0 0 0 0 0 0 0 0 0 0 0 0 0 0 0 0 0 0 0 0 0 0 0 0 0 0 0 0 0 0 0 0 0 0 0 0 0
0 0 0 0 0 0 0 0 0 0 0 0 0 0 0 0 0 0 0 0 0 0 0 0 0 0 0 0 0 0 0 0 0 0 0 0 0 0 0 0 0 0 0
0 0 0 0 0 0 0 0 0 0 0 0 0 0 0 0 0 0 0 0 0 0 0 0 0 0 0 0 0 0 0 0 0 0 0 0 0 0 0 0 0 0 0
0 0 0 0 0 0 0 0 0 0 0 0 0 0 0 0 0 0 0 0 0 0 0 0 0 0 0 0 0 0 0 0 0 0 0 0 0 0 0 0 0 0 0
0 0 0 0 0 0 0 0 0 0 0 0 0 0 0 0 0 0 0 0 0 0 0 0 0 0 0 0 0 0 0 0 0 0 0 0 0 0 0 0 0 0 0
0 0 0 0 0 0 0 0 0 0 0 0 0 0 0 0 0 0 0 0 0 0 0 0 0 0 0 0 0 0 0 0 0 0 0 0 0 0 0 0 0 0 0
0 0 0 0 0 0 0 0 0 0 0 0 0 0 0 0 0 0 0 0 0 0 0 0 0 0 0 0 0 0 0 0 0 0 0 0 0 0 0 0 0 0 0
0 0 0 0 0 0 0 0 0 0 0 0 0 0 0 0 0 0 0 0 0 0 0 0 0 0 0 0 0 0 0 0 0 0 0 0 0 0 0 0 0 0 0
0 0 0 0 0 0 0 0 0 0 0 0 0 0 0 0 0 0 0 0 0 0 0 0 0 0 0 0 0 0 0 0 0 0 0 0 0 0 0 0 0 0 0
0 0 0 0 0 0 0 0 0 0 0 0 0 0 0 0 0 0 0 0 0 0 0 0 0 0 0 0 0 0 0 0 0 0 0 0 0 0 0 0 0 0 0
0 0 0 0 0 0 0 0 0 0 0 0 0 0 0 0 0 0 0 0 0 0 0 0 0 0 0 0 0 0 0 0 0 0 0 0 0 0 0 0 0 0 0
0 0 0 0 0 0 0 0 0 0 0 0 0 0 0 0 0 0 0 0 0 0 0 0 0 0 0 0 0 0 0 0 0 0 0 0 0 0 0 0 0 0 0
0 0 0 0 0 0 0 0 0 0 0 0 0 0 0 0 0 0 0 0 0 0 0 0 0 0 0 0 0 0 0 0 0 0 0 0 0 0 0 0 0 0 0
0 0 0 0 0 0 0 0 0 0 0 0 0 0 0 0 0 0 0 0 0 0 0 0 0 0 0 0 0 0 0 0 0 0 0 0 0 0 0 0 0 0 0
Height
5759 5758 5757 5755 5754 5753 5751 5750 5749 5747 5745 5743 5741 5740 5738 5735 5733 5730 5728 5726 5724 5721 5718 5716 5714 5711 5708 5706 5704 5701 5699 5698 5696 5695 5693 5691 5689 5688 5687 5687 5687 5687 5687
5753 5752 5752 5750 5749 5747 5746 5744 5743 5741 5739 5737 5735 5734 5732 5730 5727 5725 5722 5720 5718 5715 5712 5709 5707 5704 5701 5699 5696 5694 5692 5689 5688 5687 5685 5683 5682 5680 5679 5679 5678 5678 5678
5749 5747 5746 5745 5744 5742 5741 5739 5737 5736 5734 5732 5730 5728 5726 5724 5722 5719 5716 5714 5711 5708 5706 5703 5700 5697 5694 5691 5688 5686 5684 5681 5679 5678 5677 5675 5673 5672 5671 5670 5670 5669 5669
5745 5744 5742 5741 5739 5737 5736 5734 5732 5730 5728 5726 5724 5722 5720 5718 5716 5714 5711 5708 5705 5702 5699 5696 5693 5689 5686 5683 5681 5678 5676 5673 5672 5670 5668 5667 5665 5664 5663 5662 5661 5661 5660
5742 5741 5739 5737 5735 5734 5732 5730 5728 5726 5723 5721 5719 5717 5715 5713 5711 5708 5705 5702 5699 5696 5693 5689 5686 5683 5679 5676 5673 5670 5668 5666 5664 5662 5660 5658 5657 5656 5654 5653 5653 5652 5651
5740 5738 5736 5735 5733 5731 5729 5727 5724 5722 5720 5718 5715 5713 5711 5708 5706 5703 5700 5697 5693 5690 5686 5683 5680 5676 5673 5670 5666 5663 5661 5658 5656 5654 5653 5651 5649 5648 5646 5645 5644 5643 5643
5738 5736 5734 5732 5730 5728 5726 5724 5721 5719 5716 5714 5712 5710 5707 5704 5701 5698 5695 5691 5688 5684 5681 5677 5674 5670 5666 5663 5660 5657 5654 5651 5649 5647 5645 5643 5641 5640 5638 5637 5635 5635 5634
5736 5734 5732 5730 5728 5726 5723 5721 5718 5716 5714 5711 5709 5706 5704 5700 5697 5694 5690 5686 5682 5679 5675 5672 5668 5664 5660 5657 5653 5650 5647 5644 5642 5640 5637 5635 5633 5632 5630 5629 5627 5626 5626
5734 5732 5730 5728 5726 5723 5721 5718 5716 5714 5711 5709 5706 5703 5700 5696 5693 5689 5685 5681 5677 5673 5670 5666 5662 5658 5654 5650 5647 5644 5641 5638 5635 5632 5630 5627 5625 5623 5622 5620 5619 5618 5618
5733 5730 5728 5726 5723 5721 5719 5716 5714 5711 5709 5706 5703 5699 5696 5692 5689 5685 5681 5677 5673 5669 5665 5660 5656 5652 5648 5644 5640 5637 5634 5631 5628 5626 5623 5620 5618 5616 5614 5612 5611 5610 5609
5731 5729 5726 5724 5722 5719 5717 5714 5712 5709 5706 5703 5700 5697 5693 5689 5685 5681 5676 5672 5668 5664 5659 5655 5650 5646 5642 5637 5634 5630 5627 5624 5621 5619 5616 5614 5611 5609 5607 5605 5604 5602 5601
5729 5727 5725 5722 5720 5717 5715 5712 5709 5707 5704 5701 5697 5694 5690 5685 5681 5677 5673 5668 5663 5659 5654 5649 5645 5641 5636 5632 5628 5624 5621 5618 5615 5612 5609 5606 5604 5602 5600 5598 5597 5595 5594
5727 5725 5723 5720 5717 5715 5712 5710 5707 5704 5701 5698 5694 5690 5686 5682 5678 5673 5669 5664 5659 5654 5649 5644 5640 5635 5631 5627 5623 5619 5615 5612 5609 5606 5603 5600 5598 5595 5593 5591 5590 5588 5587
5725 5723 5721 5718 5715 5712 5710 5707 5704 5702 5698 5695 5691 5687 5683 5679 5674 5670 5665 5660 5655 5650 5645 5640 5635 5631 5626 5622 5618 5614 5611 5607 5603 5600 5597 5594 5591 5589 5587 5585 5584 5582 5581
5722 5720 5718 5716 5713 5710 5708 5705 5702 5699 5695 5692 5688 5684 5680 5676 5671 5666 5661 5656 5651 5646 5640 5636 5631 5627 5622 5618 5614 5610 5605 5602 5598 5595 5591 5589 5586 5583 5581 5579 5578 5576 5575
5720 5718 5716 5713 5711 5708 5705 5703 5700 5697 5693 5689 5685 5681 5676 5672 5667 5662 5657 5652 5647 5642 5637 5632 5627 5622 5618 5614 5609 5605 5601 5597 5593 5590 5587 5584 5581 5578 5576 5574 5572 5570 5569
5717 5715 5713 5711 5709 5706 5703 5700 5697 5695 5691 5687 5683 5678 5674 5669 5664 5659 5654 5649 5644 5639 5634 5629 5624 5619 5614 5610 5605 5601 5597 5593 5589 5585 5582 5579 5576 5573 5571 5568 5566 5564 5562
5715 5713 5711 5708 5706 5703 5700 5698 5694 5691 5688 5684 5680 5676 5671 5666 5661 5656 5651 5646 5641 5636 5631 5626 5621 5616 5611 5606 5601 5597 5592 5588 5585 5581 5578 5574 5571 5568 5565 5563 5561 5559 5557
5711 5710 5707 5705 5703 5700 5697 5694 5691 5688 5684 5681 5677 5672 5668 5663 5657 5652 5647 5642 5637 5633 5627 5622 5617 5612 5607 5603 5598 5593 5588 5584 5580 5576 5573 5569 5566 5563 5560 5557 5555 5553 5551
5708 5706 5704 5702 5700 5697 5694 5692 5689 5685 5681 5677 5673 5669 5664 5659 5654 5649 5644 5639 5634 5629 5624 5619 5615 5610 5604 5599 5594 5589 5584 5579 5575 5571 5567 5564 5560 5557 5554 5552 5549 5547 5546
5705 5703 5701 5699 5697 5694 5691 5689 5685 5682 5678 5674 5670 5666 5661 5656 5651 5646 5641 5636 5631 5627 5622 5617 5612 5607 5601 5596 5591 5586 5580 5575 5571 5567 5563 5559 5556 5552 5549 5547 5544 5542 5540
5701 5699 5698 5696 5693 5691 5688 5685 5682 5678 5675 5671 5667 5662 5658 5653 5648 5643 5638 5633 5629 5624 5619 5614 5609 5604 5598 5593 5587 5582 5577 5572 5567 5563 5559 5555 5552 5549 5546 5543 5540 5538 5536
5697 5696 5694 5692 5690 5687 5685 5682 5678 5675 5671 5667 5664 5659 5654 5650 5645 5640 5636 5631 5626 5621 5616 5611 5606 5600 5595 5589 5584 5579 5574 5569 5564 5560 5556 5552 5549 5545 5542 5539 5537 5534 5532
5693 5692 5690 5688 5686 5684 5681 5678 5675 5671 5668 5664 5660 5656 5652 5647 5643 5638 5633 5629 5624 5619 5614 5608 5603 5598 5592 5586 5581 5576 5571 5566 5561 5557 5553 5549 5546 5543 5539 5536 5534 5531 5528
5689 5687 5686 5684 5682 5680 5677 5674 5671 5668 5665 5661 5657 5653 5649 5645 5640 5636 5631 5626 5621 5616 5611 5606 5601 5595 5589 5584 5578 5573 5568 5564 5559 5555 5551 5547 5544 5540 5537 5534 5530 5528 5525
5684 5683 5682 5680 5678 5676 5673 5671 5668 5665 5662 5658 5654 5651 5647 5642 5638 5633 5629 5624 5619 5614 5609 5604 5598 5593 5587 5582 5576 5571 5567 5562 5558 5553 5549 5545 5541 5538 5534 5531 5527 5524 5521
Wind_Speed
19 20 19 19 20 20 20 20 20 21 21 22 21 22 22 22 22 23 22 22 23 24 24 24 24 25 25 25 25 26 27 27 26 25 26 27 27 28 28 29 29 29 30
17 18 18 18 19 20 20 20 20 21 21 21 21 21 22 22 22 22 22 23 24 25 25 25 25 26 26 26 27 27 28 27 27 26 26 26 27 27 28 29 29 28 29
17 17 18 18 19 19 19 19 20 20 20 20 21 21 22 21 21 21 22 24 24 25 26 26 27 27 27 27 27 27 27 28 27 27 26 27 27 28 28 28 28 29 29
15 16 17 17 17 17 17 18 18 19 19 19 21 21 21 21 21 22 23 23 24 25 25 26 26 27 27 27 27 27 27 27 27 26 26 26 27 27 28 28 28 29 30
14 15 16 15 15 15 16 16 17 17 18 18 18 19 20 20 21 22 23 23 24 24 25 25 26 26 26 26 27 27 26 26 26 25 25 25 25 26 27 27 28 28 28
14 13 13 14 14 14 15 16 16 16 16 16 17 18 19 20 21 22 22 23 23 24 24 25 26 26 26 27 26 26 25 25 25 25 25 25 25 26 27 27 27 27 27
13 13 13 13 14 15 16 16 16 15 15 16 17 17 18 19 20 21 21 22 23 24 24 24 25 26 26 26 25 25 25 25 25 25 24 25 25 26 26 26 26 26 26
13 13 12 12 13 14 15 15 16 16 15 15 16 18 19 19 21 22 22 22 23 23 24 24 25 26 25 25 24 25 25 25 25 24 25 25 24 25 25 25 25 26 26
12 13 13 13 13 14 15 15 16 16 16 16 17 19 19 20 21 22 22 22 23 23 24 25 25 25 25 25 24 24 23 23 23 23 24 24 24 24 24 24 24 25 25
12 13 14 14 14 14 15 15 15 15 16 17 18 19 20 21 22 22 22 22 23 24 25 25 25 25 25 24 24 23 23 22 22 23 24 24 23 23 23 23 24 24 24
13 13 14 14 14 14 15 14 15 16 17 17 18 20 21 22 22 22 22 23 24 24 25 25 25 25 24 24 24 23 23 22 22 22 22 23 23 23 23 23 23 23 23
13 14 14 14 14 15 15 15 16 16 17 18 19 20 21 22 22 22 23 24 24 24 24 25 24 24 24 23 23 23 23 23 22 23 23 23 23 22 22 22 22 23 23
13 14 14 14 15 15 15 16 16 17 18 19 20 21 21 22 22 23 24 24 25 25 24 24 24 24 23 23 23 23 23 22 23 23 22 22 21 21 21 21 21 21 20
13 13 14 14 15 15 16 17 17 18 19 20 20 21 22 22 22 23 24 25 25 25 25 24 24 23 23 23 23 23 22 22 22 22 21 21 20 19 18 18 18 19 19
13 13 14 14 15 16 16 17 17 18 19 20 21 21 22 22 23 23 24 25 25 25 25 24 23 23 23 23 23 23 22 22 21 21 20 19 18 18 18 18 18 18 18
13 13 14 14 15 16 16 17 17 18 19 20 21 22 22 23 23 23 24 24 24 24 24 23 23 23 24 24 24 23 22 22 21 19 19 19 19 18 18 18 18 18 18
12 13 14 15 15 16 16 17 17 18 19 20 21 22 23 23 24 24 23 23 24 24 24 24 24 24 24 24 23 23 22 22 21 20 19 19 19 19 18 18 18 18 18
12 13 15 15 15 16 17 17 18 19 20 21 21 22 23 23 24 24 23 24 24 25 25 24 24 24 24 24 24 23 22 21 20 20 20 20 20 19 19 18 18 18 18
13 14 14 14 15 16 16 17 18 19 20 21 22 23 23 24 24 24 24 24 24 24 24 24 24 24 24 25 24 24 23 22 21 21 20 20 21 20 19 18 18 18 18
13 13 14 14 15 16 17 17 18 19 20 21 22 23 23 24 24 25 25 25 24 24 24 24 24 24 25 25 25 24 23 23 22 22 21 21 20 20 19 18 18 18 17
13 14 14 15 15 16 17 18 18 19 20 21 22 23 23 24 24 25 25 24 24 24 24 24 25 25 25 25 25 25 25 23 22 22 21 20 19 19 18 17 17 17 16
14 14 15 15 15 16 17 18 18 19 20 21 22 23 23 23 23 24 24 24 24 24 24 24 25 26 26 26 26 25 24 23 22 22 21 20 19 18 18 17 17 16 16
14 14 15 15 16 16 17 17 18 19 19 20 22 22 22 23 23 23 23 23 23 23 24 25 25 26 26 26 26 24 24 23 22 22 20 20 19 18 18 17 16 16 15
14 14 15 15 16 16 17 18 18 18 19 20 20 21 22 22 22 22 23 23 23 23 24 25 26 27 27 27 26 25 25 24 23 21 21 20 19 18 18 18 17 16 15
14 14 15 15 15 16 17 17 18 18 19 19 20 20 21 22 22 23 23 23 24 24 24 25 26 27 28 28 26 24 23 23 22 21 21 20 20 19 19 18 18 17 16
14 14 15 15 15 16 16 17 17 18 18 19 19 20 21 22 22 23 23 23 24 24 25 26 27 27 27 27 25 24 23 23 23 22 22 21 21 20 20 19 18 18 17
Wind_Direction
287 288 288 291 291 291 291 293 294 294 295 295 295 299 301 302 302 301 300 302 303 303 301 299 298 298 295 294 292 291 288 287 285 283 282 282 281 278 276 273 270 267 266
289 291 289 291 292 293 292 295 297 297 297 298 297 298 300 301 303 303 302 303 304 303 302 300 298 298 296 295 294 292 290 288 287 285 283 282 281 280 278 275 272 269 268
294 293 293 294 296 295 294 298 300 299 298 299 299 300 300 300 302 303 303 303 303 303 302 301 300 298 297 295 295 293 290 288 287 285 283 282 282 281 279 276 272 270 269
301 299 298 299 301 301 301 302 303 301 301 302 302 301 301 301 303 304 304 306 305 304 304 304 303 302 300 297 296 294 292 289 288 286 285 283 282 282 280 276 273 273 272
308 307 306 307 307 307 308 308 308 308 308 307 307 306 305 305 306 306 306 307 306 306 306 306 305 304 303 301 299 297 294 291 289 289 288 286 285 283 281 278 275 274 273
313 312 312 312 311 310 310 314 315 312 311 312 312 310 309 310 310 310 309 309 308 309 308 307 306 305 303 302 302 300 298 295 294 293 291 289 287 285 282 279 278 275 274
320 319 317 317 315 312 314 318 318 317 316 315 313 313 313 314 314 314 313 312 312 313 311 309 308 308 306 305 303 301 299 296 294 294 294 292 289 286 283 280 278 276 275
323 324 319 318 320 318 319 320 321 321 321 320 318 318 318 318 318 317 317 315 315 315 315 314 313 311 310 307 305 303 301 299 298 296 296 295 293 290 286 283 280 277 277
325 324 318 318 318 319 321 321 322 325 325 321 320 320 321 321 322 322 320 320 320 320 318 316 315 314 312 310 307 305 303 301 301 299 298 295 293 292 288 286 284 281 278
324 323 323 324 322 322 324 325 326 329 329 326 324 325 326 327 326 326 326 324 323 321 320 319 317 316 315 313 311 310 307 304 302 301 299 298 297 294 291 288 286 284 280
324 324 325 328 326 326 328 329 330 330 330 329 329 329 330 330 330 329 328 327 325 324 322 321 320 318 316 314 312 311 310 309 305 304 303 300 297 295 293 291 289 286 283
323 323 325 327 326 327 329 328 328 329 330 330 330 330 331 332 332 331 330 328 327 325 324 323 322 321 319 317 316 314 311 311 310 307 305 303 299 296 294 291 289 288 286
321 323 327 329 328 328 329 329 327 328 330 331 332 332 332 332 333 332 331 330 330 329 328 327 326 324 322 321 319 318 316 313 312 311 309 306 302 300 296 293 293 292 291
321 322 325 327 328 329 328 327 328 330 331 333 333 333 333 333 334 334 335 333 332 331 330 330 330 328 327 325 323 321 319 317 315 314 313 310 307 304 300 297 295 294 293
319 321 324 327 327 328 329 328 329 331 332 333 334 335 335 335 335 336 336 336 335 334 333 333 332 330 329 328 327 325 323 320 319 318 316 314 312 308 304 301 298 296 294
318 320 322 325 326 327 328 328 330 332 333 334 336 336 336 336 336 336 337 338 337 336 336 336 335 333 332 331 330 330 329 327 324 322 319 318 316 312 308 305 303 300 296
318 321 322 323 325 327 327 328 329 331 333 334 335 336 336 337 337 338 339 340 339 337 338 338 337 336 335 334 333 333 331 330 328 326 323 320 318 316 313 309 305 302 298
316 320 322 322 324 326 327 328 329 331 331 332 334 335 336 337 338 339 339 339 338 337 337 337 337 337 337 337 336 335 333 331 328 326 325 322 320 317 314 310 306 304 301
313 318 321 324 327 329 330 330 331 333 333 334 335 336 337 337 337 337 337 338 338 337 338 338 338 339 339 339 338 337 334 330 328 326 324 322 320 317 315 311 308 306 303
311 315 318 322 326 328 329 329 330 332 333 335 337 338 338 338 338 339 339 339 339 339 340 339 340 340 340 340 339 337 335 332 330 329 326 323 322 320 317 313 311 309 307
309 312 315 319 323 325 326 327 329 331 333 336 337 338 338 339 339 340 340 340 341 341 340 340 340 340 341 341 339 337 335 333 332 332 331 328 327 325 322 318 315 313 310
306 308 311 315 319 322 325 327 329 332 333 336 338 339 339 340 340 341 341 341 341 342 342 342 341 341 341 340 339 338 337 336 335 334 333 333 331 330 328 323 319 316 314
304 307 310 313 316 320 323 326 329 332 334 336 338 340 342 343 343 343 344 344 343 343 343 343 343 343 342 341 341 341 341 340 340 340 339 338 336 333 332 329 326 323 319
300 303 307 312 316 320 323 326 329 331 333 335 338 341 343 345 345 345 346 346 345 344 344 343 344 344 344 344 343 342 341 341 342 344 344 342 340 338 337 335 331 327 323
297 301 305 310 317 321 323 325 328 330 333 335 337 340 342 343 344 344 344 345 345 344 345 345 345 345 345 345 345 344 344 345 344 344 344 343 342 340 337 335 333 328 324
295 299 303 308 314 318 321 324 327 329 331 333 334 337 340 341 342 343 344 345 345 346 346 346 346 346 346 347 347 348 348 348 347 346 345 343 342 340 338 336 334 330 326